sat.trackr.live / text

‹ back to catalog

STARLINK-11147 [DTC]

NORAD 60301 · 2024-133A

PAYLOAD ACTIVE UNKNOWN

§ Identity

Operator
Country
US
Launch date
2024-07-28
Launch site
AFWTR
Launch vehicle
Mass (kg)
RCS (m²)

Purposes: comms

External: N2YO · Heavens-Above · Gunter

§ Orbital elements

Epoch: 2026-09-20T06:41:50.942112Z

Period
91.74 min
Inclination
53.1599°
Eccentricity
0.0001024
Mean motion
15.69704101 rev/d
Perigee alt
359.1 km
Apogee alt
360.4 km
Semi-major
6,737.9 km
B*
-1.5742e-6
RAAN
267.1859°
Arg perigee
76.4368°
Mean anomaly
283.6764°
Rev number
12,429

§ Raw data

STARLINK-11147 [DTC]1 60301U 24133A   26263.27906183 -.00000779  00000+0 -15742-5 0  99962 60301  53.1599 267.1859 0001024  76.4368 283.6764 15.69704101124291

JSON: /api/v1/satellites/60301 · /tle

For live sub-satellite position, see the globe view (requires WebGL).

§ Visibility from observer

Set your observer location to see the next 7 days of passes ≥ 10°. The values pass through the URL so the page stays shareable.

No JS? Fill the form by hand. The geolocation button needs JavaScript.